Location: Bremen
(53.0830°N, 8.8000°E)
Time: 18:24:33
(UTC+01:00)

Envisat - Pass Details

Date: 01 October 2022
Orbit: 763 x 765 km, 98.2° (Epoch: 30 November)

Event Time Altitude Azimuth Distance (km) Brightness Sun altitude
Rises 05:30:31 0° 18° (NNE) 3,248 6.8 -17.9°
Reaches altitude 10° 05:32:54 10° 23° (NNE) 2,317 6.1 -17.5°
Maximum altitude 05:37:53 51° 99° (E) 963 3.9 -16.8°
Drops below altitude 10° 05:42:49 10° 176° (S) 2,299 5.3 -16.1°
Sets 05:45:10 0° 181° (S) 3,220 6.1 -15.8°
